Probability
0 0 0 0 0 0 0 0 0 0 0 0 0 0 0 0 0 0 0 0 0 0 0 0 0 0 0 0 0 0 0 0 0 0 0 0 0 0
0 0 0 0 0 0 0 0 0 0 0 0 0 0 0 0 0 0 0 0 0 0 0 0 0 0 0 0 0 0 0 0 0 0 0 0 0 0
0 0 0 0 0 0 0 0 0 0 0 0 0 0 0 0 0 0 0 0 0 0 0 0 0 0 0 0 0 0 0 0 0 0 0 0 0 0
0 0 0 0 0 0 0 0 0 0 0 0 0 0 0 0 0 0 0 0 0 0 0 0 0 0 0 0 0 0 0 0 0 0 0 0 0 0
0 0 0 0 0 0 0 0 0 0 0 0 0 0 0 0 0 0 0 0 0 0 0 0 0 0 0 0 0 0 0 0 0 0 0 0 0 0
0 0 0 0 0 0 0 0 0 0 0 0 0 0 0 0 0 0 0 0 0 0 0 0 0 0 0 0 0 0 0 0 0 0 0 0 0 0
0 0 0 0 0 0 0 0 0 0 0 0 0 0 0 0 0 0 0 0 0 0 0 0 0 0 0 0 0 0 0 0 0 0 0 0 0 0
0 0 0 0 0 0 0 0 0 0 0 0 0 0 0 0 0 0 0 0 0 0 0 0 0 0 0 0 0 0 0 0 0 0 0 0 0 0
0 0 0 0 0 0 0 0 0 0 0 0 0 0 0 0 0 0 0 0 0 0 0 0 0 0 0 0 0 0 0 0 0 0 0 0 0 0
0 0 0 0 0 0 0 0 0 0 0 0 0 0 0 0 0 0 0 0 0 0 0 0 0 0 0 0 0 0 0 0 0 0 0 0 0 0
0 0 0 0 0 0 0 0 0 0 0 0 0 0 0 0 0 0 0 0 0 0 0 0 0 0 0 0 0 0 0 0 0 0 0 0 0 0
0 0 0 0 0 0 0 0 0 0 0 0 0 0 0 0 0 0 0 0 0 0 0 0 0 0 0 0 0 0 0 0 0 0 0 0 0 0
0 0 0 0 0 0 0 0 0 0 0 0 0 0 0 0 0 0 0 0 0 0 0 0 0 0 0 0 0 0 0 0 0 0 0 0 0 0
0 0 0 0 0 0 0 0 0 0 0 0 0 0 0 0 0 0 0 0 0 0 0 0 0 0 0 0 0 0 0 0 0 0 0 0 0 0
0 0 0 0 0 0 0 0 0 0 0 0 0 0 0 0 0 0 0 0 0 0 0 0 0 0 0 0 0 0 0 0 0 0 0 0 0 0
0 0 0 0 0 0 0 0 0 0 0 0 0 0 0 0 0 0 0 0 0 0 0 0 0 0 0 0 0 0 0 0 0 0 0 0 0 0
0 0 0 0 0 0 0 0 0 0 0 0 0 0 0 0 0 0 0 0 0 0 0 0 0 0 0 0 0 0 0 0 0 0 0 0 0 0
0 0 0 0 0 0 0 0 0 0 0 0 0 0 0 0 0 0 0 0 0 0 0 0 0 0 0 0 0 0 0 0 0 0 0 0 0 0
0 0 0 0 0 0 0 0 0 0 0 0 0 0 0 0 0 0 0 0 0 0 0 0 0 0 0 0 0 0 0 0 0 0 0 0 0 0
0 0 0 0 0 0 0 0 0 0 0 0 0 0 0 0 0 0 0 0 0 0 0 0 0 0 0 0 0 0 0 0 0 0 0 0 0 0
0 0 0 0 0 0 0 0 0 0 0 0 0 0 0 0 0 0 0 0 0 0 0 0 0 0 0 0 0 0 0 0 0 0 0 0 0 0
0 0 0 0 0 0 0 0 0 0 0 0 0 0 0 0 0 0 0 0 0 0 0 0 0 0 0 0 0 0 0 0 0 0 0 0 0 0
0 0 0 0 0 0 0 0 0 0 0 0 0 0 0 0 0 0 0 0 0 0 0 0 0 0 0 0 0 0 0 0 0 0 0 0 0 0
Wind_Speed
3 2 2 1 1 2 2 3 4 4 3 2 2 3 3 4 7 6 6 11 11 11 10 10 9 9 8 8 8 7 7 7 6 5 5 4 4 3
3 4 4 2 2 2 2 2 2 4 4 2 2 2 3 4 7 6 6 9 8 8 7 7 6 6 7 7 6 6 6 5 4 4 3 2 2 1
5 5 5 4 3 3 3 4 4 4 7 4 3 3 4 4 4 4 4 4 4 6 5 5 4 4 5 5 4 4 4 3 3 2 2 2 2 2
7 7 6 5 6 5 4 5 5 5 8 8 4 3 4 3 3 4 3 3 2 4 4 3 3 3 3 3 3 3 3 3 3 3 4 4 4 4
7 7 6 6 7 5 6 6 6 6 6 7 5 3 3 3 3 3 3 2 1 2 2 2 2 2 3 3 4 4 4 4 4 4 5 5 5 6
7 7 7 7 6 7 7 7 7 8 7 7 6 3 3 2 2 2 2 2 1 1 1 1 1 1 3 4 5 6 6 6 6 6 6 6 7 7
8 7 7 9 9 7 6 6 7 6 6 6 5 3 2 2 2 1 1 1 1 1 1 0 0 1 2 3 5 7 7 7 8 8 8 8 8 9
7 7 7 9 10 11 11 9 7 7 6 5 4 4 2 2 1 1 1 1 1 1 1 1 0 2 2 3 5 7 8 8 8 9 9 9 10 10
7 6 6 7 8 7 10 11 10 9 6 4 5 3 2 2 2 2 1 1 0 1 1 1 1 2 2 3 5 6 7 7 8 9 9 10 10 11
7 6 6 7 6 6 8 8 7 7 5 4 3 2 2 2 2 1 1 1 0 0 1 1 1 2 2 3 4 5 6 7 8 9 10 10 11 11
7 7 7 7 8 8 8 7 7 5 6 7 5 4 3 3 4 3 2 1 1 1 0 1 1 2 2 2 3 5 6 7 8 9 10 10 11 10
5 6 8 8 8 7 6 6 5 3 4 4 5 5 4 3 2 2 2 1 0 1 1 1 1 2 2 2 3 3 4 5 7 9 10 10 9 6
4 4 4 7 7 7 5 4 3 2 3 3 3 3 3 2 2 1 1 2 1 2 1 2 1 1 2 3 3 3 3 3 4 5 7 9 9 7
2 2 3 5 6 6 4 4 4 3 2 2 2 2 2 2 2 2 1 3 3 4 3 3 2 2 2 3 4 4 4 4 4 5 5 6 8 9
2 3 3 4 5 4 5 4 3 2 2 2 2 1 1 2 2 2 2 1 2 3 3 4 4 3 3 3 4 4 4 4 4 4 5 5 5 5
3 3 5 6 4 3 3 3 2 1 1 0 1 1 1 1 2 2 2 2 2 2 2 2 4 4 3 5 4 5 5 5 5 5 5 6 6 6
2 2 3 3 3 3 2 2 1 1 1 0 1 1 1 1 1 1 1 1 2 3 4 3 2 4 7 5 5 6 6 6 6 5 5 6 7 7
2 2 1 1 2 2 2 2 1 1 1 0 1 1 1 1 2 1 1 1 2 3 4 4 4 3 3 4 8 7 6 6 6 6 5 6 8 7
1 0 1 1 2 2 1 1 1 1 1 1 1 2 1 2 2 2 2 2 3 4 4 3 3 3 5 8 6 6 6 6 6 6 6 6 8 9
1 2 2 2 2 2 2 2 2 2 2 2 2 2 2 2 2 3 3 3 4 4 5 4 4 4 5 6 7 7 7 7 6 8 8 7 7 10
2 3 3 3 3 3 3 3 3 3 3 3 3 3 3 3 3 4 4 5 4 4 6 6 5 5 5 4 6 8 7 8 10 8 8 8 9 8
4 4 4 4 4 4 4 3 4 4 4 4 4 4 4 4 5 6 5 5 5 5 7 7 6 4 4 6 9 10 10 9 8 13 15 13 8 9
5 4 4 4 4 4 4 5 5 5 4 4 5 5 4 4 5 5 6 6 6 7 7 7 6 5 6 7 9 10 13 12 9 9 10 11 17 20
Wind_Direction
33 41 53 49 76 101 118 136 138 137 111 79 71 48 58 64 68 68 74 83 85 84 83 84 90 96 99 100 102 103 105 107 108 109 108 107 103 97
41 54 54 50 62 76 101 97 107 126 119 95 88 85 79 84 77 71 75 80 82 86 88 92 97 104 107 109 113 116 117 116 117 120 118 126 123 118
39 56 56 54 63 65 80 88 89 103 113 100 77 82 82 85 75 69 70 65 76 88 97 104 106 111 119 124 128 130 133 136 146 163 180 198 216 240
40 49 51 61 65 65 78 88 92 95 117 118 97 79 75 79 74 73 69 71 75 83 91 105 119 135 146 154 162 167 174 186 201 213 228 236 246 255
46 49 49 62 66 69 79 86 91 94 97 112 104 82 77 78 76 71 65 48 67 92 98 118 146 171 189 198 204 210 215 221 228 234 241 244 250 257
48 49 51 60 72 79 84 89 97 98 100 104 103 92 84 76 83 80 67 39 26 43 51 90 155 218 226 226 228 231 234 237 241 242 243 245 249 253
45 47 55 66 72 78 94 99 104 104 105 106 106 104 97 99 92 83 88 32 8 13 340 349 296 261 254 247 244 243 245 244 243 243 244 246 249 251
43 41 53 58 67 73 85 90 102 114 118 116 118 122 123 119 114 112 108 74 35 30 324 303 268 261 257 251 251 253 250 248 246 245 246 247 248 250
41 41 52 52 62 74 75 73 70 77 97 125 126 131 139 155 146 130 131 101 17 354 304 300 295 276 272 265 261 258 255 252 250 250 249 250 251 252
39 41 53 47 55 72 78 72 65 59 68 86 110 126 145 156 157 139 137 119 40 12 246 295 315 293 300 290 276 268 265 260 257 255 256 256 257 256
36 39 47 55 53 71 78 76 64 49 59 74 85 88 105 137 149 133 120 87 30 352 247 259 311 309 297 290 287 281 274 268 265 262 261 260 260 259
31 31 40 52 57 67 80 85 76 48 47 53 51 46 53 65 103 147 155 142 162 290 224 230 298 320 312 298 297 297 288 275 273 268 263 263 261 255
37 21 17 36 58 66 74 79 91 92 69 64 53 40 39 42 42 64 196 191 201 250 225 202 250 261 278 297 297 291 289 286 288 276 271 269 263 243
39 6 1 29 53 61 68 82 90 83 73 58 46 26 14 5 353 340 269 230 236 253 249 212 242 236 256 280 289 293 290 281 275 277 284 283 272 252
17 15 33 51 58 54 56 65 74 81 76 59 31 358 331 316 318 323 335 302 257 250 241 219 224 231 234 256 276 284 296 294 279 278 284 283 278 272
17 18 38 57 59 50 42 43 45 61 92 73 326 315 316 329 350 351 349 347 342 326 309 240 233 226 242 249 257 273 276 280 287 287 285 281 272 261
4 28 31 27 27 26 27 30 35 59 64 357 323 321 335 344 345 350 344 343 336 322 322 322 285 243 242 252 267 272 280 280 278 287 286 287 283 277
64 40 19 12 2 350 349 351 353 360 351 311 308 308 315 320 320 326 321 311 306 302 301 305 316 315 293 249 226 262 279 279 287 286 276 282 288 287
87 315 288 289 290 294 288 286 298 309 303 288 284 286 288 291 295 302 302 294 292 292 293 294 292 296 305 306 292 226 250 284 290 289 280 271 278 285
241 258 266 267 266 267 267 263 268 277 274 273 273 270 270 271 277 280 282 284 289 293 295 290 278 272 275 291 296 290 249 255 275 284 288 284 276 275
263 260 258 258 258 257 255 253 254 260 262 260 261 260 259 257 266 272 276 277 275 280 288 291 288 278 268 267 277 282 279 246 239 260 283 290 292 292
256 258 260 253 250 250 250 247 248 252 255 255 257 257 255 253 259 267 271 274 273 274 279 285 292 289 268 274 286 292 295 295 276 251 246 245 269 285
247 250 256 255 247 242 241 242 244 251 251 251 253 254 254 255 257 260 264 266 271 277 282 289 292 285 280 280 285 289 292 296 299 299 289 264 244 250